LNI284 WIKK-WIPP

Flight info

Callsign LNI284
Flight time 0h 23m
Altitude 16000
Route TODAK
Aircraft B739/M-SDE2E3FGHIRWXY/LB1

Departure

Time 2026-05-05 12:38
Airport Depati Amir Airport (WIKK)

Arrival

Time 2026-05-05 13:02
Airport Sultan Mahmud Badaruddin II Airport (WIPP)
Time Latitude Longitude Altitude Speed Heading
2026-05-05 12:21 -2.15790 106.14019 111 ft 0 kts 74°
2026-05-05 12:30 -2.15793 106.14008 108 ft 2 kts 74°
2026-05-05 12:30 -2.15797 106.13992 106 ft 2 kts 76°
2026-05-05 12:30 -2.15800 106.13976 110 ft 2 kts 98°
2026-05-05 12:31 -2.15792 106.13966 108 ft 1 kts 163°
2026-05-05 12:31 -2.15790 106.13965 108 ft 0 kts 164°
2026-05-05 12:32 -2.15803 106.13969 109 ft 5 kts 165°
2026-05-05 12:33 -2.15865 106.13985 111 ft 13 kts 165°
2026-05-05 12:33 -2.15962 106.14011 110 ft 15 kts 165°
2026-05-05 12:33 -2.16062 106.14039 113 ft 15 kts 165°
2026-05-05 12:33 -2.16159 106.14066 114 ft 14 kts 165°
2026-05-05 12:34 -2.16253 106.14091 117 ft 14 kts 165°
2026-05-05 12:34 -2.16342 106.14117 119 ft 13 kts 164°
2026-05-05 12:34 -2.16428 106.14141 120 ft 13 kts 166°
2026-05-05 12:34 -2.16491 106.14097 117 ft 13 kts 251°
2026-05-05 12:35 -2.16521 106.14017 117 ft 12 kts 240°
2026-05-05 12:35 -2.16598 106.14002 119 ft 13 kts 161°
2026-05-05 12:35 -2.16701 106.14031 119 ft 16 kts 165°
2026-05-05 12:35 -2.16807 106.14060 121 ft 15 kts 165°
2026-05-05 12:36 -2.16909 106.14087 118 ft 15 kts 165°
2026-05-05 12:36 -2.17006 106.14117 115 ft 14 kts 153°
2026-05-05 12:36 -2.17047 106.14138 114 ft 2 kts 193°
2026-05-05 12:36 -2.17053 106.14124 113 ft 3 kts 277°
2026-05-05 12:37 -2.17027 106.14116 115 ft 5 kts 357°
2026-05-05 12:37 -2.16996 106.14109 114 ft 2 kts 344°
2026-05-05 12:37 -2.16919 106.14088 117 ft 41 kts 344°
2026-05-05 12:38 -2.16399 106.13944 120 ft 113 kts 345°
2026-05-05 12:38 -2.15445 106.13684 116 ft 169 kts 345°
2026-05-05 12:38 -2.14233 106.13368 586 ft 180 kts 345°
2026-05-05 12:38 -2.13152 106.12777 1272 ft 183 kts 306°
2026-05-05 12:39 -2.12786 106.11523 1619 ft 205 kts 262°
2026-05-05 12:39 -2.13467 106.10222 1842 ft 226 kts 223°
2026-05-05 12:39 -2.14708 106.09169 2225 ft 239 kts 220°
2026-05-05 12:39 -2.15948 106.08008 2667 ft 253 kts 225°
2026-05-05 12:40 -2.17165 106.06666 3147 ft 266 kts 230°
2026-05-05 12:40 -2.18315 106.05196 3921 ft 269 kts 233°
2026-05-05 12:40 -2.19387 106.03652 4772 ft 272 kts 236°
2026-05-05 12:40 -2.20405 106.02042 5526 ft 276 kts 238°
2026-05-05 12:41 -2.21388 106.00371 6292 ft 281 kts 240°
2026-05-05 12:41 -2.22343 105.98659 7021 ft 284 kts 241°
2026-05-05 12:41 -2.23283 105.96909 7752 ft 287 kts 242°
2026-05-05 12:41 -2.24214 105.95129 8469 ft 291 kts 242°
2026-05-05 12:42 -2.25144 105.93318 9191 ft 294 kts 243°
2026-05-05 12:42 -2.26075 105.91482 9902 ft 298 kts 243°
2026-05-05 12:42 -2.27018 105.89607 10407 ft 309 kts 243°
2026-05-05 12:42 -2.27989 105.87666 10801 ft 322 kts 243°
2026-05-05 12:43 -2.28995 105.85647 11381 ft 327 kts 243°
2026-05-05 12:43 -2.30013 105.83599 12033 ft 330 kts 243°
2026-05-05 12:43 -2.31040 105.81530 12674 ft 334 kts 243°
2026-05-05 12:43 -2.32080 105.79433 13302 ft 338 kts 243°
2026-05-05 12:44 -2.33130 105.77315 13895 ft 342 kts 243°
2026-05-05 12:44 -2.34189 105.75176 14458 ft 345 kts 243°
2026-05-05 12:44 -2.35260 105.73016 15029 ft 348 kts 243°
2026-05-05 12:44 -2.36339 105.70840 15588 ft 351 kts 243°
2026-05-05 12:45 -2.37432 105.68636 15851 ft 358 kts 243°
2026-05-05 12:45 -2.38555 105.66370 15869 ft 367 kts 243°
2026-05-05 12:45 -2.39690 105.64080 15867 ft 368 kts 243°
2026-05-05 12:45 -2.40825 105.61787 15876 ft 368 kts 243°
2026-05-05 12:46 -2.41960 105.59493 15876 ft 368 kts 243°
2026-05-05 12:46 -2.43096 105.57199 15867 ft 368 kts 243°
2026-05-05 12:46 -2.44240 105.54889 15545 ft 371 kts 243°
2026-05-05 12:46 -2.45381 105.52582 15149 ft 370 kts 243°
2026-05-05 12:47 -2.46518 105.50285 14741 ft 367 kts 243°
2026-05-05 12:47 -2.47648 105.48002 14280 ft 366 kts 243°
2026-05-05 12:47 -2.48775 105.45724 13858 ft 364 kts 243°
2026-05-05 12:47 -2.49894 105.43463 13356 ft 363 kts 243°
2026-05-05 12:48 -2.51009 105.41210 12889 ft 361 kts 243°
2026-05-05 12:48 -2.52134 105.38975 12429 ft 358 kts 240°
2026-05-05 12:48 -2.53585 105.36978 12044 ft 353 kts 229°
2026-05-05 12:48 -2.55199 105.35136 11601 ft 351 kts 227°
2026-05-05 12:49 -2.56821 105.33329 11167 ft 349 kts 227°
2026-05-05 12:49 -2.58434 105.31521 10725 ft 347 kts 228°
2026-05-05 12:49 -2.60021 105.29722 10425 ft 340 kts 228°
2026-05-05 12:49 -2.61536 105.27986 10211 ft 323 kts 229°
2026-05-05 12:50 -2.62967 105.26338 10129 ft 303 kts 229°
2026-05-05 12:50 -2.64303 105.24793 10048 ft 285 kts 229°
2026-05-05 12:50 -2.65579 105.23317 9850 ft 279 kts 229°
2026-05-05 12:50 -2.66843 105.21854 9528 ft 278 kts 229°
2026-05-05 12:51 -2.68105 105.20393 9202 ft 277 kts 229°
2026-05-05 12:51 -2.69361 105.18939 8878 ft 276 kts 229°
2026-05-05 12:51 -2.70612 105.17490 8550 ft 275 kts 229°
2026-05-05 12:51 -2.71864 105.16041 8216 ft 275 kts 229°
2026-05-05 12:52 -2.73133 105.14613 7886 ft 275 kts 226°
2026-05-05 12:52 -2.74459 105.13240 7557 ft 274 kts 225°
2026-05-05 12:52 -2.75778 105.11896 7235 ft 274 kts 225°
2026-05-05 12:52 -2.77108 105.10533 6907 ft 274 kts 225°
2026-05-05 12:53 -2.78439 105.09163 6577 ft 274 kts 225°
2026-05-05 12:53 -2.79769 105.07790 6243 ft 274 kts 225°
2026-05-05 12:53 -2.81092 105.06420 5957 ft 272 kts 225°
2026-05-05 12:53 -2.82392 105.05069 5731 ft 267 kts 225°
2026-05-05 12:54 -2.84930 105.02429 5317 ft 262 kts 225°
2026-05-05 12:54 -2.86193 105.01116 5119 ft 262 kts 225°
2026-05-05 12:54 -2.87460 104.99799 4921 ft 263 kts 225°
2026-05-05 12:55 -2.88728 104.98481 4715 ft 263 kts 225°
2026-05-05 12:55 -2.90001 104.97158 4510 ft 264 kts 225°
2026-05-05 12:55 -2.91138 104.96058 4322 ft 264 kts 215°
2026-05-05 12:55 -2.92761 104.95249 4118 ft 258 kts 201°
2026-05-05 12:56 -2.94385 104.94593 3923 ft 254 kts 201°
2026-05-05 12:56 -2.96024 104.93917 3739 ft 256 kts 202°
2026-05-05 12:56 -2.97510 104.93022 3488 ft 247 kts 227°
2026-05-05 12:56 -2.98255 104.91552 3306 ft 235 kts 264°
2026-05-05 12:57 -2.98036 104.89983 3157 ft 225 kts 286°
2026-05-05 12:57 -2.97532 104.88475 2990 ft 225 kts 290°
2026-05-05 12:57 -2.96975 104.87071 2832 ft 214 kts 292°
2026-05-05 12:57 -2.96416 104.85735 2667 ft 203 kts 292°
2026-05-05 12:58 -2.95870 104.84435 2507 ft 202 kts 292°
2026-05-05 12:58 -2.95339 104.83167 2354 ft 192 kts 292°
2026-05-05 12:58 -2.94843 104.81981 2245 ft 180 kts 292°
2026-05-05 12:58 -2.94361 104.80827 2012 ft 178 kts 292°
2026-05-05 12:59 -2.93893 104.79708 1822 ft 169 kts 292°
2026-05-05 12:59 -2.93455 104.78658 1598 ft 159 kts 292°
2026-05-05 12:59 -2.93032 104.77647 1388 ft 157 kts 292°
2026-05-05 13:00 -2.92180 104.75607 968 ft 157 kts 292°
2026-05-05 13:00 -2.91759 104.74601 799 ft 157 kts 292°
2026-05-05 13:01 -2.90518 104.71633 159 ft 149 kts 292°
2026-05-05 13:01 -2.90131 104.70706 20 ft 137 kts 292°
2026-05-05 13:01 -2.89842 104.70019 22 ft 77 kts 292°
2026-05-05 13:01 -2.89682 104.69638 15 ft 54 kts 293°
2026-05-05 13:02 -2.89548 104.69322 15 ft 39 kts 292°
2026-05-05 13:02 -2.89430 104.69244 15 ft 18 kts 20°
2026-05-05 13:02 -2.89371 104.69304 17 ft 13 kts 92°
2026-05-05 13:02 -2.89398 104.69387 20 ft 13 kts 112°
2026-05-05 13:03 -2.89431 104.69467 18 ft 12 kts 112°
2026-05-05 13:03 -2.89464 104.69545 16 ft 12 kts 112°
2026-05-05 13:03 -2.89504 104.69641 18 ft 18 kts 114°
2026-05-05 13:03 -2.89562 104.69773 19 ft 22 kts 113°
2026-05-05 13:04 -2.89620 104.69913 19 ft 21 kts 112°
2026-05-05 13:04 -2.89675 104.70041 21 ft 19 kts 116°
2026-05-05 13:04 -2.89726 104.70159 23 ft 16 kts 112°
2026-05-05 13:04 -2.89677 104.70237 26 ft 14 kts 32°
2026-05-05 13:05 -2.89658 104.70306 27 ft 10 kts 112°
2026-05-05 13:05 -2.89648 104.70360 27 ft 9 kts 30°
2026-05-05 13:05 -2.89604 104.70379 26 ft 5 kts 22°
2026-05-05 13:05 -2.89593 104.70383 28 ft 0 kts 22°